SL-14 R/B (20511 NORAD) Tracking and Keplerian Element Data

This shows tracking and keplerian element data for the satellite.

Feedback or suggestion? Click here.




ElementValue
Catalog20511
NameSL-14 R/B
Epoch Orbit54892
Epoch Day322.84156214
Epoch Year2018
RAAN190.1727
Inclination82.5239
Eccentricity0.001675
Argument of Perigee204.6204
Mean Anonmoly277.4631
Mean Motion14.79996202
Decay Rate4.7E-07
L11 20511U 90018B 18322.84156214 .00000047 00000-0 31928-5 0 9993
L22 20511 82.5239 190.1727 0016750 204.6204 277.4631 14.79996202548921

Live tracking and technical data element details for SL-14 R/B (NORAD 20511). SL-14 R/B can be tracked NOW for your location showing map with azimuth and elevation plus other details from your city location.

Track the satellite on the map from your city or location and see movement details for azimuth, elevation, latitude, longitude, range, height, and movement on the map or in text.







IsCatalogInMostPopularTable: catalog: 20511, numindb: 31
Update: records affected: 1



GetName: 20511 SL-14 R/B

Hit Count: updated at: Wed, 21 Nov 2018 05:25:19 GMT